Overview Statistics Trail Chart Weather Telemetry Raw packets
 

This is the latest recevied weather packets stored in our database for station/object N5PER. If no packets are shown the sender has not sent any weather packets the latest 10 day(s).

<< 1 2 3 4 5 >>
Time Temp. Humidity Pressure Rain* Wind** Luminosity Snow
1788571236 28.33° C 76% 1010.2 hPa 0 mm - 0 W/m² -
1788570931 28.33° C 75% 1010.2 hPa 0 mm - 0 W/m² -
1788570635 28.33° C 75% 1010.3 hPa 0 mm - 0 W/m² -
1788570321 28.33° C 73% 1010.2 hPa 0 mm - 0 W/m² -
1788570018 28.33° C 71% 1010 hPa 0 mm - 0 W/m² -
1788569713 28.33° C 69% 1010.3 hPa 0 mm - 0 W/m² -
1788569409 28.89° C 68% 1009.9 hPa 0 mm - 0 W/m² -
1788569109 29.44° C 70% 1010.2 hPa 0 mm - 1 W/m² -
1788568804 30° C 70% 1010.2 hPa 0 mm - 2 W/m² -
1788568500 30.56° C 65% 1010.1 hPa 0 mm - 3 W/m² -
1788568195 31.11° C 65% 1010.1 hPa 0 mm - 9 W/m² -
1788567890 31.11° C 64% 1009.9 hPa 0 mm - 15 W/m² -
1788567589 31.67° C 63% 1009.7 hPa 0 mm - 20 W/m² -
1788567279 31.67° C 62% 1009.7 hPa 0 mm - 31 W/m² -
1788566979 31.67° C 61% 1009.5 hPa 0 mm - 40 W/m² -
1788566675 32.22° C 61% 1009.5 hPa 0 mm - 54 W/m² -
1788566370 32.22° C 61% 1009.5 hPa 0 mm - 58 W/m² -
1788566066 32.22° C 60% 1009.4 hPa 0 mm - 63 W/m² -
1788565766 32.22° C 60% 1009.6 hPa 0 mm - 67 W/m² -
1788565466 32.22° C 60% 1009.5 hPa 0 mm - 71 W/m² -
1788565162 32.78° C 59% 1009.4 hPa 0 mm - 76 W/m² -
1788564857 32.22° C 60% 1009.5 hPa 0 mm - 86 W/m² -
1788564553 32.22° C 60% 1009.4 hPa 0 mm - 96 W/m² -
1788564250 32.78° C 59% 1009.6 hPa 0 mm - 110 W/m² -
1788563946 32.78° C 58% 1009.5 hPa 0 mm - 130 W/m² -

* Rain latest hour (hover to see other rain measurements)
** Current wind speed in m/s (hover to see current wind gust speed)